Regional Weather Roundup
Issued by NWS

Home | Current Version | Previous Version | Graphics & Text | Print | Product List | Glossary On
Versions: 1 2 3 4 5 6 7 8 9 10 11 12 13 14 15 16 17 18 19 20 21 22 23 24 25 26 27 28 29 30 31 32 33 34 35 36 37 38 39 40 41 42 43 44 45 46 47 48 49 50
000
ASUS45 KBOI 200110
RWRID

IDAHO REGIONAL WEATHER ROUNDUP
NATIONAL WEATHER SERVICE BOISE ID
600 PM MST FRI JAN 19 2018

NOTE: "FAIR" INDICATES FEW OR NO CLOUDS BELOW 12000 FEET
WITH NO SIGNIFICANT WEATHER AND/OR OBSTRUCTIONS TO VISIBILITY

IDZ012-014-200200-
SOUTHWEST IDAHO


CITY           SKY/WX    TMP DP  RH WIND       PRES   REMARKS
BOISE          PTCLDY    40  25  55 W7        29.97R
CALDWELL         N/A     40  26  57 SW3       29.98S
MOUNTAIN HOME  PTCLDY    36  28  73 NW6       29.97R WCI  31
$$

IDZ016-017-200200-
SOUTHCENTRAL IDAHO


CITY           SKY/WX    TMP DP  RH WIND       PRES   REMARKS
BURLEY         CLOUDY    35  27  72 SW13      29.92R WCI  26
JEROME         MOCLDY    34  27  75 SW12      29.93S WCI  25
TWIN FALLS     MOCLDY    32  29  88 S7        29.94R WCI  26
$$

IDZ019>023-200200-
SOUTHEAST IDAHO


CITY           SKY/WX    TMP DP  RH WIND       PRES   REMARKS
IDAHO FALLS    CLOUDY    33  29  85 S18       29.87R WCI  22
POCATELLO      CLOUDY    34  28  79 SW22      29.89S WCI  22
REXBURG        CLOUDY    32  29  88 S10G18    29.84R WCI  24
$$

IDZ006-010-011-018-031-032-200200-
CENTRAL IDAHO MOUNTAINS


CITY           SKY/WX    TMP DP  RH WIND       PRES   REMARKS
MCCALL         FLURRIES  26  24  92 CALM      29.88R
HAILEY         PTCLDY    32  18  55 NW7       29.85S WCI  26
STANLEY          N/A     22  17  81 CALM      29.87R
SALMON         MOCLDY    32  23  69 CALM      29.90R
CHALLIS        MOCLDY    31  20  63 CALM      29.87R
$$

IDZ002-004-006-007-026-200200-
NORTHERN IDAHO


CITY           SKY/WX    TMP DP  RH WIND       PRES   REMARKS
LEWISTON       MOCLDY    39  36  89 NE3       29.97R
LOWELL           N/A     37  36  96 CALM      30.01R
COEUR D`ALENE  CLOUDY    36  32  85 S5        29.92R WCI  32
MULLAN PASS    CLOUDY    22  20  92 VRB5      29.80R WCI  16
$$



USA.gov is the U.S. government's official web portal to all federal, state and local government web resources and services.